Dewpoint
37 48 51 51 50 49 49 49 50 50 50 49 49 48 48 47 47 48 47 46 46 45 44 42 39 40 39 38 37 35 35 31 28 31 30 30 31 32 31 30 30 28 29
45 46 48 48 48 48 48 47 46 48 48 48 48 47 47 46 47 47 46 46 45 43 41 39 38 39 40 39 37 36 36 33 29 30 31 30 30 30 29 28 27 26 27
44 44 46 46 45 44 46 46 46 46 46 46 46 46 44 44 42 42 43 41 41 41 41 39 39 39 39 40 39 38 36 31 30 30 30 30 30 31 30 29 27 26 25
45 45 42 44 44 44 43 44 44 45 42 40 39 37 38 40 40 39 40 39 38 36 37 38 36 37 39 39 37 35 33 31 30 31 31 29 29 28 27 27 24 24 25
43 44 43 43 42 44 43 43 44 44 42 38 38 39 39 39 39 38 38 37 36 35 35 36 37 39 39 37 34 34 33 32 31 31 29 25 20 27 25 24 24 23 21
42 43 42 41 41 41 41 41 41 40 39 40 39 39 39 39 38 37 37 36 36 34 34 35 36 37 37 36 35 33 32 31 30 29 28 27 18 23 22 28 24 20 19
39 40 40 39 38 38 38 38 37 37 38 38 38 38 38 37 37 37 36 36 34 33 32 32 31 31 33 33 34 34 33 33 30 28 27 26 26 26 27 26 24 24 22
38 37 36 36 34 34 35 34 33 35 34 34 34 35 35 36 36 36 35 35 34 33 32 31 29 28 29 29 28 27 28 30 30 29 28 27 27 27 28 27 26 25 24
35 34 34 34 33 33 32 32 32 32 32 33 33 34 34 35 35 35 35 33 32 31 29 29 28 28 30 30 26 25 24 25 29 29 28 28 28 27 22 24 23 19 21
34 34 34 34 34 33 33 32 33 33 32 32 32 33 34 33 35 35 34 33 31 29 27 28 29 28 29 28 24 23 21 21 23 23 24 25 25 26 25 23 21 20 23
35 33 33 33 34 34 33 33 32 32 32 32 32 32 32 33 33 35 34 31 29 27 27 26 27 30 29 27 25 22 22 22 21 21 21 21 21 21 19 19 18 20 17
35 34 33 33 35 34 33 33 33 32 32 31 31 31 32 33 34 34 33 31 30 28 26 27 29 29 29 27 25 24 24 21 21 20 20 18 18 15 15 16 15 13 13
34 34 33 33 33 34 33 32 32 32 31 31 30 30 30 31 32 33 32 31 30 27 26 28 29 29 28 26 26 24 22 22 21 20 19 17 14 15 14 13 11 12 14
33 33 34 33 32 33 34 34 33 32 31 30 29 28 29 29 31 30 30 30 29 27 28 28 27 26 24 25 25 23 24 24 22 21 21 17 18 17 15 13 10 10 14
33 34 34 33 33 33 33 34 34 34 32 31 30 29 27 26 28 30 29 28 26 25 25 24 23 23 24 23 22 22 23 23 23 21 19 16 17 17 14 14 15 16 13
32 33 33 33 33 33 33 32 34 33 34 33 30 28 27 28 30 31 31 29 27 25 23 22 21 21 21 22 23 23 19 21 23 20 17 16 18 16 15 16 15 13 10
33 33 33 33 33 33 32 32 30 33 32 31 31 30 29 29 31 31 31 29 27 24 21 20 20 20 20 21 22 22 21 20 22 20 18 19 18 18 16 16 15 14 12
33 32 33 33 33 33 33 33 32 31 30 30 31 30 30 30 31 31 30 28 25 23 21 20 20 20 20 20 22 21 21 20 21 19 18 18 17 17 15 15 14 8 11
34 33 33 33 33 33 33 32 32 32 32 30 31 31 31 30 30 31 30 26 24 23 22 22 22 21 21 20 22 21 20 19 20 18 18 17 15 14 13 14 14 10 10
33 32 32 32 32 32 32 32 32 31 31 31 30 29 29 29 28 29 27 26 24 24 24 23 24 23 22 22 21 21 19 18 18 16 15 17 15 15 12 10 10 8 10
32 32 32 32 32 32 32 32 32 31 31 30 29 29 28 27 26 27 25 24 24 24 25 25 25 24 23 23 22 22 21 20 20 19 18 18 15 14 15 15 13 13 12
31 31 32 32 32 32 32 32 31 31 30 29 28 29 29 27 26 26 25 24 24 23 26 26 25 25 24 24 24 22 22 20 20 19 18 18 18 17 15 12 13 14 16
31 31 31 32 32 32 32 32 31 31 30 30 29 28 28 27 26 25 25 28 25 23 26 27 26 25 24 24 25 24 22 22 21 21 19 18 18 19 18 16 10 8 14
32 31 31 31 31 31 31 31 31 31 30 30 29 28 28 27 27 26 27 29 28 28 27 25 27 26 24 24 25 24 24 23 23 21 20 20 19 18 19 12 17 15 15
31 32 32 32 32 32 32 31 30 30 30 30 29 29 28 29 28 28 28 29 29 29 29 28 28 28 23 22 24 23 21 22 22 22 22 21 20 18 21 19 18 18 9
31 31 32 32 32 32 32 31 30 30 30 30 29 29 28 29 30 30 29 29 28 28 29 29 28 28 27 25 22 21 22 23 25 21 23 23 23 22 22 19 17 15 10
Lifted_Index
1 1 -0 -1 -1 -1 0 1 1 1 1 2 2 2 1 2 4 5 6 6 6 7 7 7 7 7 8 8 8 8 9 10 10 11 13 14 14 15 16 17 17 17 17
0 0 -0 -0 -0 -0 0 1 1 1 2 2 3 3 2 3 4 6 6 6 7 7 7 7 7 7 8 8 8 9 9 10 10 11 12 13 14 15 16 16 17 17 17
-0 -0 -0 0 0 0 1 1 1 1 1 2 3 3 3 3 4 6 7 7 7 8 7 7 7 8 8 8 8 9 9 10 10 10 10 12 14 15 16 16 16 16 17
1 1 1 1 1 1 1 1 1 1 1 1 2 2 2 3 5 6 7 7 8 8 8 8 8 9 9 9 9 9 9 9 9 9 9 11 13 14 15 14 14 15 16
1 1 1 1 1 2 2 2 2 1 1 2 2 2 2 4 5 7 7 8 8 9 9 9 9 10 10 10 9 8 8 8 8 8 9 10 12 13 13 13 13 14 14
1 1 2 2 2 3 3 3 2 2 2 2 2 2 3 4 6 7 8 9 10 10 10 10 10 10 10 10 9 8 8 8 8 8 9 11 12 12 13 13 13 13 13
1 2 3 4 5 5 4 4 4 4 4 3 3 3 4 5 7 8 9 10 11 11 11 10 10 10 10 9 9 9 9 9 9 10 11 12 12 13 13 13 14 13 13
2 2 3 6 7 7 6 6 6 6 5 5 5 5 6 7 9 10 10 11 10 10 10 10 10 10 10 10 10 10 10 11 11 12 12 13 13 14 14 14 14 13 13
2 2 4 6 8 8 8 8 8 7 7 7 7 7 8 9 10 11 11 11 10 10 11 11 11 11 10 11 11 11 11 12 13 13 14 14 15 15 15 15 14 13 12
3 3 4 6 8 9 9 10 9 9 9 9 9 9 10 11 11 12 11 10 10 10 12 12 12 12 12 12 12 12 12 12 13 13 14 15 15 15 15 15 14 13 12
3 3 4 6 8 9 10 11 11 11 10 10 11 11 11 12 12 12 12 11 11 12 12 13 13 13 13 14 14 13 13 13 13 14 14 14 15 15 15 15 15 14 14
4 3 4 6 8 10 10 11 11 11 11 11 11 12 12 13 13 13 13 12 13 13 13 14 14 14 14 15 15 14 14 14 14 14 14 14 14 14 15 15 16 16 16
3 3 4 5 7 9 10 10 11 11 11 11 11 11 12 13 13 13 13 13 13 13 14 14 15 15 15 15 16 16 15 15 15 14 14 14 14 15 15 15 16 16 17
3 3 4 5 6 8 9 10 10 10 10 10 10 10 11 12 12 13 13 14 14 14 14 14 15 15 15 16 16 16 16 16 15 14 14 14 14 15 15 15 15 15 15
3 3 4 4 5 7 8 9 10 10 9 9 10 10 10 11 12 13 14 14 14 14 14 14 14 15 15 16 16 16 16 16 15 14 14 14 14 14 14 15 15 14 14
3 3 4 4 5 6 7 8 9 9 9 9 10 11 11 12 13 13 14 14 14 14 14 14 14 14 15 15 15 15 15 15 15 14 14 14 14 14 14 14 14 14 13
3 3 4 4 5 6 6 7 7 8 9 10 11 12 12 12 13 13 14 14 14 14 14 13 13 14 15 15 15 15 15 15 15 15 14 14 14 14 14 14 14 13 13
3 3 4 4 5 6 7 7 7 7 8 9 10 11 12 12 13 13 13 13 14 14 14 14 14 15 15 15 15 15 15 15 15 14 14 14 14 15 14 14 13 13 13
4 5 5 5 5 7 8 8 8 8 8 8 10 11 11 11 12 13 13 13 13 13 14 15 15 15 16 16 16 16 16 15 14 14 14 14 15 14 14 13 13 13 13
6 6 6 6 6 7 9 9 9 9 8 9 9 10 10 11 11 12 13 13 13 13 15 15 16 16 16 16 16 16 15 14 14 14 14 15 15 14 14 13 13 13 14
7 7 7 7 7 8 9 10 10 9 9 9 9 10 10 10 10 11 12 12 13 15 15 16 16 16 16 16 15 15 14 14 14 14 15 15 14 14 14 13 14 14 14
8 8 8 8 9 9 10 10 10 10 9 9 10 10 10 10 10 11 12 13 15 16 16 16 16 16 15 15 14 14 13 13 14 14 14 14 14 13 13 14 14 14 14
8 9 9 9 10 10 11 11 10 10 10 10 10 10 10 10 11 11 13 14 15 16 16 16 15 15 15 15 14 14 14 13 14 14 14 14 13 13 13 14 14 14 14
9 9 9 10 10 11 11 10 10 10 10 10 10 10 10 10 11 12 13 14 15 15 16 15 15 14 14 15 15 14 14 14 14 14 14 13 13 13 13 14 14 14 14
8 8 9 9 9 10 10 10 9 9 9 9 9 10 10 10 11 12 13 14 14 15 15 15 14 14 14 14 14 14 14 14 14 14 14 13 13 13 13 13 14 14 14
7 8 8 9 9 9 9 9 9 9 9 9 9 9 10 11 11 12 13 14 14 14 14 14 14 14 14 14 14 14 14 14 13 14 14 13 13 13 13 13 13 14 14